Location: Poughquag
(41.6090°N, 73.6820°W)
Time: 18:54:01
(UTC-04:00)

JY1SAT - Pass Details

Date: 21 September 2024
Orbit: 527 x 537 km, 97.5° (Epoch: 10 October)

Event Time Altitude Azimuth Distance (km) Brightness Sun altitude
Exits shadow 21:51:30 12° 351° (N) 1,676 ? -32.4°
Drops below altitude 10° 21:51:48 10° 351° (N) 1,799 ? -32.5°
Sets 21:53:55 0° 350° (N) 2,698 ? -32.8°
